Flag for France Weather past 2 weeks in Montpellier, France

Now
61 °F

Light rain. Fog.


Feels Like: 61 °F
Forecast: 55 / 64 °F
Wind: 12 mph from Southeast

Location: Montpellier Airport

Current Time: Apr 26, 2015 at 5:55:08 AM

Latest Report: Apr 26, 2015 at 5:00 AM


Visibility: 2 mi

Pressure: 29.86 "Hg

Humidity: 94%

Dew point: 59 °F

Location of MontpellierLocation

Historic Weather in Montpellier — Graph

°F

Montpellier temperature yesterday

Maximum temperature yesterday: 66 °F (at 1:30 PM)
Minimum temperature yesterday: 61 °F (at 4:00 AM)
Average temperature yesterday: 63 °F

Past Weeks' High & Low Weather Summary

 TemperatureHumidityPressure
High77 °F (Apr 14, 11:30 AM)100% (Apr 17, 6:00 AM)30.42 "Hg (Apr 17, 6:00 AM)
Low43 °F (Apr 11, 7:00 AM)32% (Apr 14, 1:30 PM)29.86 "Hg (Apr 18, 6:00 PM)
Average60 °F75%30.12 "Hg
* Reported Apr 11 4:00 AM — Apr 26 4:30 AM, Montpellier, Weather by CustomWeather, © 2015

Note: Actual official high and low records may vary slightly from our data, if they occured in-between our weather recording intervals... More about our weather records

Advertising

Montpellier weather history for previous 24 hours

 ConditionsComfort  
Time TempWeatherWind HumidityBarometerVisibility
4:30 AM
Sun, Apr 26
61 °FLight rain. Fog.13 mph94%29.86 "Hg2 mi
4:00 AM61 °FLight rain. Passing clouds.13 mph94%29.86 "Hg5 mi
3:30 AM61 °FPassing clouds.18 mph94%29.86 "Hg5 mi
3:00 AM61 °FMostly cloudy.16 mph94%29.86 "HgN/A
2:30 AM61 °FMostly cloudy.16 mph94%29.89 "HgN/A
2:00 AM61 °FMostly cloudy.13 mph94%29.89 "HgN/A
1:30 AM61 °FMostly cloudy.12 mph94%29.92 "HgN/A
1:00 AM61 °FPassing clouds.12 mph94%29.92 "HgN/A
12:30 AM61 °FPartly cloudy.13 mph94%29.92 "HgN/A
12:00 AM63 °FPassing clouds.15 mph88%29.92 "HgN/A
11:00 PM
Sat, Apr 25
63 °FPassing clouds.16 mph88%29.95 "HgN/A
10:30 PM63 °FPassing clouds.15 mph88%29.92 "HgN/A
10:00 PM63 °FPassing clouds.16 mph88%29.92 "HgN/A
9:30 PM63 °FPartly sunny.16 mph88%29.92 "HgN/A
9:00 PM63 °FPartly sunny.15 mph88%29.92 "HgN/A
8:30 PM63 °FPartly sunny.16 mph88%29.92 "HgN/A
8:00 PM63 °FPartly sunny.14 mph88%29.92 "HgN/A
7:30 PM63 °FPartly sunny.13 mph88%29.92 "HgN/A
7:00 PM63 °FPartly sunny.13 mph88%29.92 "HgN/A
6:30 PM63 °FPartly sunny.14 mph88%29.92 "HgN/A
6:00 PM64 °FPartly sunny.15 mph83%29.92 "HgN/A
5:30 PM64 °FPartly sunny.16 mph83%29.92 "HgN/A
5:00 PM64 °FPartly sunny.15 mph83%29.92 "HgN/A
4:30 PM64 °FPartly sunny.16 mph83%29.92 "HgN/A
4:00 PM64 °FPartly sunny.17 mph83%29.92 "HgN/A
3:30 PM64 °FMore clouds than sun.17 mph83%29.95 "HgN/A
3:00 PM66 °FMore clouds than sun.16 mph83%29.95 "HgN/A
2:30 PM66 °FMore clouds than sun.16 mph83%29.95 "HgN/A
2:00 PM66 °FMore clouds than sun.16 mph83%29.95 "HgN/A
1:30 PM66 °FMore clouds than sun.17 mph83%29.98 "HgN/A
1:00 PM63 °FBroken clouds.16 mph88%29.98 "HgN/A
12:30 PM63 °FBroken clouds.14 mph94%29.98 "HgN/A
12:00 PM63 °FBroken clouds.14 mph88%29.98 "HgN/A
11:30 AM63 °FBroken clouds.14 mph88%29.98 "HgN/A
11:00 AM63 °FBroken clouds.15 mph88%29.98 "HgN/A
10:30 AM63 °FBroken clouds.15 mph88%29.98 "HgN/A
10:00 AM63 °FPartly sunny.16 mph88%29.98 "HgN/A
9:30 AM63 °FPartly sunny.17 mph88%29.95 "HgN/A
9:00 AM61 °FPartly sunny.16 mph94%29.95 "HgN/A
8:30 AM61 °FBroken clouds.14 mph94%29.95 "HgN/A
8:00 AM61 °FBroken clouds.15 mph94%29.95 "HgN/A
7:30 AM61 °FLight rain. Partly cloudy.15 mph94%29.95 "HgN/A
7:00 AM61 °FLight rain. Partly cloudy.16 mph94%29.92 "HgN/A
6:30 AM61 °FLight rain. Partly cloudy.16 mph94%29.95 "HgN/A
6:00 AM61 °FLight rain. Partly cloudy.15 mph94%29.95 "HgN/A
5:30 AM61 °FLight rain. Mostly cloudy.12 mph94%29.95 "HgN/A
5:00 AM63 °FLight rain. Mostly cloudy.14 mph88%29.95 "HgN/A
Weather by CustomWeather, © 2015

See weather overviewHow to use our weather pages